Location: Stara Lesna
(49.1528°N, 20.2911°E)
Time: 06:44:34
(UTC+02:00)

CENTAUR R/B - Pass Details

Date: 21 September 2019
Orbit: 780 x 1408 km, 63.4° (Epoch: 12 October)

Event Time Altitude Azimuth Distance (km) Brightness Sun altitude
Exits shadow 03:12:28 48° 143° (SE) 1,249 2.9 -29.3°
Maximum altitude 03:13:12 51° 121° (ESE) 1,228 3.0 -29.2°
Drops below altitude 10° 03:19:55 10° 48° (NE) 2,985 6.0 -28.4°
Sets 03:22:53 0° 44° (NE) 4,048 7.0 -28.0°
